Location: Kendal
(54.3280°N, 2.7463°W)
Time: 17:28:27
(UTC+01:00)

ACS3 Solar Sail - Visible Passes

Search period start: 13 May 2026 00:00
Search period end: 23 May 2026 00:00
Orbit: 894 x 947 km, 97.2° (Epoch: 12 May)

Date Brightness Start Highest point End Pass type
(mag) Time Alt. Az. Time Alt. Az. Time Alt. Az.
13 May 3.8 00:13:04 10° NE 00:15:44 13° ENE 00:18:25 10° ESE visible
13 May 2.0 01:53:24 10° NNE 01:59:20 62° E 02:03:08 23° S visible
13 May 2.8 03:36:11 10° N 03:41:23 33° WNW 03:46:37 10° WSW visible
14 May 3.7 00:21:13 10° NE 00:24:37 15° E 00:28:01 10° ESE visible
14 May 1.8 02:02:04 10° NNE 02:08:03 71° E 02:11:59 23° S visible
14 May 3.0 03:44:57 10° N 03:49:58 29° WNW 03:55:00 10° WSW visible
15 May 3.6 00:29:31 10° NE 00:33:28 18° E 00:37:20 10° ESE visible
15 May 1.8 02:10:45 10° NNE 02:16:45 81° ESE 02:20:49 22° S visible
15 May 3.1 03:53:45 10° N 03:58:32 26° NW 04:03:20 10° WSW visible
16 May 3.4 00:37:54 10° NE 00:42:18 21° E 00:46:10 12° SE visible
16 May 1.7 02:19:25 10° NNE 02:25:26 89° WNW 02:29:40 21° SSW visible
16 May 3.3 04:02:34 10° N 04:07:06 23° NW 04:11:37 10° WSW visible
17 May 3.3 00:46:21 10° NNE 00:51:07 24° E 00:55:00 13° SE visible
17 May 1.8 02:28:07 10° NNE 02:34:07 78° WNW 02:38:30 19° SSW visible
17 May 3.4 04:11:23 10° N 04:15:38 21° NW 04:19:52 10° W visible
18 May 3.1 00:54:51 10° NNE 00:59:55 27° E 01:03:50 15° SE visible
18 May 1.9 02:36:49 10° N 02:42:46 69° WNW 02:47:19 18° SSW visible
19 May 2.9 01:03:23 10° NNE 01:08:41 32° E 01:12:39 16° SE visible
19 May 2.0 02:45:31 10° N 02:51:24 60° WNW 02:56:09 16° SW visible
20 May 2.7 01:11:57 10° NNE 01:17:27 36° E 01:21:28 17° SSE visible
20 May 2.2 02:54:14 10° N 03:00:01 53° WNW 03:04:58 14° SW visible
21 May 2.5 01:20:31 10° NNE 01:26:12 42° E 01:30:17 18° SSE visible
21 May 2.4 03:02:56 10° N 03:08:37 46° WNW 03:13:46 13° SW visible
22 May 2.3 01:29:07 10° NNE 01:34:55 48° E 01:39:05 19° SSE visible
22 May 2.5 03:11:39 10° N 03:17:13 41° WNW 03:22:35 11° SW visible
